Location: Nairn
(57.5833°N, 3.8667°W)
Time: 04:33:51
(UTC+00:00)

Explorer 7 - Pass Details

Date: 27 November 2020
Orbit: 484 x 678 km, 50.3° (Epoch: 17 January)

Event Time Altitude Azimuth Distance (km) Brightness Sun altitude
Exits shadow 06:09:54 20° 230° (SW) 1,320 8.4 -16.9°
Maximum altitude 06:11:51 29° 187° (S) 1,013 8.2 -16.7°
Drops below altitude 10° 06:15:20 10° 127° (SE) 1,761 10.5 -16.2°
Sets 06:17:40 0° 115° (ESE) 2,620 12.0 -15.9°
